Flag for U.S.A. Weather past 2 weeks in Allentown, Pennsylvania, U.S.A.

Now
49 °F

Clear.


Feels Like: 47 °F
Forecast: 49 / 58 °F
Wind: 5 mph from East

Location: Lehigh Valley International Airport

Current Time: Oct 22, 2014 at 1:15:46 AM

Latest Report: Oct 22, 2014 at 12:51 AM


Visibility: 10 mi

Pressure: 29.90 "Hg

Humidity: 90%

Dew point: 46 °F

Location of AllentownLocation

Historic Weather in Allentown — Graph

°F

Allentown temperature yesterday

Maximum temperature yesterday: 65 °F (at 3:51 PM)
Minimum temperature yesterday: 50 °F (at 6:51 AM)
Average temperature yesterday: 56 °F

Past Weeks' High & Low Weather Summary

 TemperatureHumidityPressure
High79 °F (Oct 14, 3:51 PM)100% (Oct 11, 11:55 PM)30.32 "Hg (Oct 11, 11:55 PM)
Low33 °F (Oct 20, 6:51 AM)31% (Oct 9, 12:51 PM)29.59 "Hg (Oct 18, 5:51 AM)
Average58 °F70%29.97 "Hg
* Reported Oct 6 11:51 PM — Oct 21 11:51 PM, Allentown, Weather by CustomWeather, © 2014

Note: Actual official high and low records may vary slightly from our data, if they occured in-between our weather recording intervals... More about our weather records

Advertising

Allentown weather history for previous 24 hours

 ConditionsComfort  
Time TempWeatherWind HumidityBarometerVisibility
11:51 PM
Oct 21
51 °FClear.No wind86%29.92 "Hg10 mi
10:51 PM53 °FPassing clouds.5 mph86%29.92 "Hg10 mi
9:51 PM55 °FMostly cloudy.5 mph80%29.91 "Hg10 mi
8:51 PM55 °FPassing clouds.7 mph80%29.89 "Hg10 mi
7:51 PM60 °FMostly cloudy.8 mph67%29.88 "Hg10 mi
6:51 PM60 °FMostly cloudy.6 mph67%29.86 "Hg10 mi
5:51 PM62 °FSunny.3 mph56%29.83 "Hg10 mi
4:51 PM65 °FSunny.No wind49%29.81 "Hg10 mi
3:51 PM65 °FPartly sunny.3 mph51%29.82 "Hg10 mi
2:51 PM64 °FBroken clouds.No wind50%29.82 "Hg10 mi
1:51 PM64 °FMostly cloudy.No wind56%29.83 "Hg10 mi
12:51 PM64 °FPassing clouds.3 mph58%29.85 "Hg10 mi
11:51 AM61 °FSunny.No wind65%29.87 "Hg10 mi
10:51 AM57 °FOvercast.No wind74%29.88 "Hg10 mi
9:51 AM55 °FOvercast.3 mph77%29.88 "Hg10 mi
8:51 AM52 °FOvercast.6 mph83%29.89 "Hg10 mi
7:51 AM50 °FOvercast.No wind89%29.88 "Hg8 mi
6:51 AM50 °FOvercast.No wind93%29.87 "Hg10 mi
5:51 AM51 °FMostly cloudy.5 mph89%29.87 "Hg10 mi
4:51 AM52 °FLight rain. Overcast.5 mph86%29.88 "Hg10 mi
3:51 AM51 °FLight rain. Mostly cloudy.No wind89%29.89 "Hg10 mi
2:51 AM51 °FLight rain. Mostly cloudy.3 mph89%29.91 "Hg7 mi
1:51 AM52 °FLight rain. Mostly cloudy.No wind83%29.92 "Hg10 mi
Weather by CustomWeather, © 2014

See weather overviewHow to use our weather pages